FW2164 Weather Reports


Display with metric or nautical units.
time (UTC)temp
F
wind
direction
speed
MPH
gust
MPH
rain 1hr
in
rain 24hr
in
rain mn
in
humidity
%
barometer
mb
20200129001338 18 58 2.0 0.0 0.00 0.00 0.00 87 1015.6
20200129000842 18 53 3.0 0.0 0.00 0.00 0.00 87 1015.6
20200129000340 18 73 2.0 0.0 0.00 0.00 0.00 88 1015.6
20200128235837 18 38 3.0 0.0 0.00 0.00 0.00 88 1015.6
20200128235338 18 34 0.0 0.0 0.00 0.00 0.00 88 1015.2
20200128234840 18 88 0.0 0.0 0.00 0.00 0.00 88 1015.6
20200128234338 19 123 0.0 0.0 0.00 0.00 0.00 87 1015.6
20200128233837 18 77 0.0 0.0 0.00 0.00 0.00 87 1015.6
20200128233339 18 36 0.0 0.0 0.00 0.00 0.00 87 1015.6
20200128232837 19 73 0.0 0.0 0.00 0.00 0.00 87 1015.6
20200128232339 19 13 0.0 0.0 0.00 0.00 0.00 87 1015.6
20200128231839 19 63 0.0 0.0 0.00 0.00 0.00 87 1015.6
20200128231340 19 188 0.0 0.0 0.00 0.00 0.00 87 1015.6
20200128230837 19 120 0.0 0.0 0.00 0.00 0.00 87 1015.6
20200128230341 19 159 0.0 0.0 0.00 0.00 0.00 87 1015.6
20200128225838 19 114 0.0 0.0 0.00 0.00 0.00 86 1015.6
20200128225336 19 71 0.0 0.0 0.00 0.00 0.00 86 1015.6
20200128224838 19 264 0.0 0.0 0.00 0.00 0.00 85 1015.6
20200128224339 19 32 0.0 0.0 0.00 0.00 0.00 85 1015.6
20200128223840 19 82 0.0 0.0 0.00 0.00 0.00 85 1015.6
20200128223339 19 65 0.0 0.0 0.00 0.00 0.00 85 1015.6
20200128222837 20 68 0.0 0.0 0.00 0.00 0.00 85 1015.6
20200128222337 20 232 0.0 0.0 0.00 0.00 0.00 85 1015.6
20200128221844 20 199 0.0 0.0 0.00 0.00 0.00 85 1015.2
20200128221340 20 82 0.0 0.0 0.00 0.00 0.00 85 1015.6
20200128220836 20 79 0.0 0.0 0.00 0.00 0.00 85 1015.6
20200128220338 19 14 0.0 0.0 0.00 0.00 0.00 85 1015.6
20200128215841 19 180 0.0 0.0 0.00 0.00 0.00 85 1015.6
20200128215337 19 110 1.0 0.0 0.00 0.00 0.00 85 1015.6
20200128214838 19 206 0.0 0.0 0.00 0.00 0.00 85 1015.2
20200128214340 19 129 0.0 0.0 0.00 0.00 0.00 84 1015.6
20200128213836 19 64 0.0 0.0 0.00 0.00 0.00 84 1015.2
20200128213339 20 99 2.0 0.0 0.00 0.00 0.00 84 1015.2
20200128212840 20 141 0.0 0.0 0.00 0.00 0.00 83 1015.6
20200128212340 20 198 0.0 0.0 0.00 0.00 0.00 83 1015.2
20200128211838 20 341 1.0 0.0 0.00 0.00 0.00 82 1015.2
20200128211342 21 240 3.0 0.0 0.00 0.00 0.00 82 1015.2
20200128210839 21 261 1.0 0.0 0.00 0.00 0.00 81 1015.2
20200128210335 21 281 0.0 0.0 0.00 0.00 0.00 81 1015.2
20200128205834 21 295 0.0 0.0 0.00 0.00 0.00 81 1014.9
20200128205334 21 244 0.0 0.0 0.00 0.00 0.00 81 1015.2
20200128204835 21 243 0.0 0.0 0.00 0.00 0.00 81 1014.9
20200128204340 21 274 3.0 0.0 0.00 0.00 0.00 80 1014.9
20200128203839 22 290 1.0 0.0 0.00 0.00 0.00 80 1014.9
20200128203413 22 265 1.0 0.0 0.00 0.00 0.00 80 1014.9
20200128202340 22 236 2.0 0.0 0.00 0.00 0.00 81 1014.9
20200128201840 22 173 0.0 0.0 0.00 0.00 0.00 81 1014.6
20200128201337 22 129 0.0 0.0 0.00 0.00 0.00 82 1014.6
20200128200839 21 230 0.0 0.0 0.00 0.00 0.00 82 1014.9
20200128200334 21 341 1.0 0.0 0.00 0.00 0.00 82 1014.6
20200128195840 21 45 2.0 0.0 0.00 0.00 0.00 82 1014.9
20200128195336 21 58 1.0 0.0 0.00 0.00 0.00 83 1014.9
20200128194836 21 243 2.0 0.0 0.00 0.00 0.00 84 1014.6
20200128194335 20 66 0.0 0.0 0.00 0.00 0.00 83 1014.9
20200128193835 20 129 2.0 0.0 0.00 0.00 0.00 83 1014.9
20200128193340 21 69 0.0 0.0 0.00 0.00 0.00 82 1014.9
20200128192835 21 110 0.0 0.0 0.00 0.00 0.00 82 1014.9
20200128192333 21 51 3.0 0.0 0.00 0.00 0.00 82 1014.9
20200128191838 22 43 1.0 0.0 0.00 0.00 0.00 83 1014.9
20200128191338 21 71 0.0 0.0 0.00 0.00 0.00 84 1014.9
20200128190835 21 90 2.0 0.0 0.00 0.00 0.00 83 1014.9
20200128190340 21 117 1.0 0.0 0.00 0.00 0.00 83 1014.9
20200128185836 21 41 2.0 0.0 0.00 0.00 0.00 84 1014.9
20200128185338 21 51 4.0 0.0 0.00 0.00 0.00 84 1015.2
20200128184838 21 38 2.0 0.0 0.00 0.00 0.00 84 1015.2
20200128184339 21 349 1.0 0.0 0.00 0.00 0.00 84 1015.2
20200128183836 21 157 1.0 0.0 0.00 0.00 0.00 83 1015.2
20200128183338 21 186 1.0 0.0 0.00 0.00 0.00 84 1015.2
20200128182838 21 52 3.0 0.0 0.00 0.00 0.00 84 1015.2
20200128182341 21 78 0.0 0.0 0.00 0.00 0.00 85 1015.6
20200128181834 21 215 0.0 0.0 0.00 0.00 0.00 86 1015.6
20200128181340 21 23 0.0 0.0 0.00 0.00 0.00 88 1015.6
20200128180836 20 66 1.0 0.0 0.00 0.00 0.00 88 1015.6
20200128180340 19 147 2.0 0.0 0.00 0.00 0.00 88 1015.6
20200128175840 19 124 2.0 0.0 0.00 0.00 0.00 88 1015.6
20200128175341 19 130 2.0 0.0 0.00 0.00 0.00 87 1015.6
20200128174835 19 43 1.0 0.0 0.00 0.00 0.00 87 1015.6
20200128174335 19 66 3.0 0.0 0.00 0.00 0.00 87 1015.6
20200128173836 20 117 0.0 0.0 0.00 0.00 0.00 88 1015.6
20200128173338 19 97 2.0 0.0 0.00 0.00 0.00 88 1015.9
20200128172836 19 143 3.0 0.0 0.00 0.00 0.00 88 1015.9
20200128172336 19 158 2.0 0.0 0.00 0.00 0.00 87 1015.9
20200128171835 20 115 2.0 0.0 0.00 0.00 0.00 88 1016.3
20200128171337 20 68 1.0 0.0 0.00 0.00 0.00 88 1015.9
20200128170839 20 16 3.0 0.0 0.00 0.00 0.00 88 1015.9
20200128170339 19 198 0.0 0.0 0.00 0.00 0.00 88 1015.9
20200128165842 19 111 1.0 0.0 0.00 0.00 0.00 89 1015.9
20200128165338 19 83 2.0 0.0 0.00 0.00 0.00 88 1016.3
20200128164833 19 131 2.0 0.0 0.00 0.00 0.00 89 1016.3
20200128164337 19 69 0.0 0.0 0.00 0.00 0.00 90 1015.9
20200128163837 18 61 0.0 0.0 0.00 0.00 0.00 89 1015.9
20200128163337 19 109 3.0 0.0 0.00 0.00 0.00 89 1015.9
20200128162838 19 122 3.0 0.0 0.00 0.00 0.00 89 1015.9
20200128162338 19 62 2.0 0.0 0.00 0.00 0.00 90 1015.9
20200128162214 19 33 2.0 0.0 0.00 0.00 0.00 90 1015.9
20200128161338 18 107 3.0 0.0 0.00 0.00 0.00 89 1015.6
20200128160838 18 183 4.0 0.0 0.00 0.00 0.00 90 1015.6
20200128160343 18 335 0.0 0.0 0.00 0.00 0.00 90 1015.6
20200128155836 18 16 4.0 0.0 0.00 0.00 0.00 90 1015.6
20200128155336 19 77 0.0 0.0 0.00 0.00 0.00 91 1015.6
20200128154837 18 269 0.0 0.0 0.00 0.00 0.00 91 1015.6
20200128154338 18 304 2.0 0.0 0.00 0.00 0.00 91 1015.9
20200128153839 18 63 0.0 0.0 0.00 0.00 0.00 91 1015.9
20200128153338 18 101 1.0 0.0 0.00 0.00 0.00 92 1015.9
20200128152836 18 252 1.0 0.0 0.00 0.00 0.00 92 1015.9
20200128152338 18 77 0.0 0.0 0.00 0.00 0.00 93 1015.9
20200128151836 18 191 0.0 0.0 0.00 0.00 0.00 93 1015.9
20200128151339 18 70 0.0 0.0 0.00 0.00 0.00 93 1015.9
20200128150835 18 41 2.0 0.0 0.00 0.00 0.00 93 1015.9
20200128150340 18 234 1.0 0.0 0.00 0.00 0.00 93 1015.9
20200128145839 18 228 1.0 0.0 0.00 0.00 0.00 94 1016.3
20200128145334 18 327 1.0 0.0 0.00 0.00 0.00 94 1016.3
20200128144836 18 245 0.0 0.0 0.00 0.00 0.00 94 1016.3
20200128144334 18 211 0.0 0.0 0.00 0.00 0.00 94 1015.9
20200128143841 18 210 0.0 0.0 0.00 0.00 0.00 94 1015.9
20200128143341 18 121 0.0 0.0 0.00 0.00 0.00 94 1015.9
20200128142841 18 272 0.0 0.0 0.00 0.00 0.00 94 1015.9
20200128142336 18 59 0.0 0.0 0.00 0.00 0.00 94 1015.9
20200128141836 18 201 0.0 0.0 0.00 0.00 0.00 94 1015.9
20200128141339 17 257 0.0 0.0 0.00 0.00 0.00 94 1015.9
20200128140840 17 215 0.0 0.0 0.00 0.00 0.00 94 1015.9
20200128140335 17 233 0.0 0.0 0.00 0.00 0.00 94 1015.9
20200128135836 17 60 0.0 0.0 0.00 0.00 0.00 94 1015.9
20200128135335 17 268 2.0 0.0 0.00 0.00 0.00 94 1015.9
20200128134837 17 255 3.0 0.0 0.00 0.00 0.00 94 1015.9
20200128134335 17 59 0.0 0.0 0.00 0.00 0.00 94 1015.6
20200128133840 17 226 0.0 0.0 0.00 0.00 0.00 94 1015.6
20200128133341 17 231 1.0 0.0 0.00 0.00 0.00 94 1015.6
20200128132838 17 347 0.0 0.0 0.00 0.00 0.00 94 1015.6
20200128132333 17 209 0.0 0.0 0.00 0.00 0.00 94 1015.6
20200128131840 17 163 0.0 0.0 0.00 0.00 0.00 94 1015.6
20200128131339 17 275 0.0 0.0 0.00 0.00 0.00 94 1015.6
20200128130837 17 161 0.0 0.0 0.00 0.00 0.00 94 1015.6
20200128130339 17 252 0.0 0.0 0.00 0.00 0.00 94 1015.2
20200128125837 17 238 0.0 0.0 0.00 0.00 0.00 94 1015.2
20200128125339 17 1 0.0 0.0 0.00 0.00 0.00 94 1015.6
20200128124839 17 244 0.0 0.0 0.00 0.00 0.00 94 1015.2
20200128124337 17 48 1.0 0.0 0.00 0.00 0.00 94 1015.2
20200128123840 18 73 0.0 0.0 0.00 0.00 0.00 94 1015.6
20200128123342 18 105 0.0 0.0 0.00 0.00 0.00 95 1015.2
20200128122836 18 4 2.0 0.0 0.00 0.00 0.00 95 1015.6
20200128122340 18 25 0.0 0.0 0.00 0.00 0.00 94 1015.6
20200128121841 18 339 0.0 0.0 0.00 0.00 0.00 94 1015.6
20200128121333 18 253 3.0 0.0 0.00 0.00 0.00 95 1015.2
20200128120835 18 174 0.0 0.0 0.00 0.00 0.00 95 1015.6
20200128120340 18 87 0.0 0.0 0.00 0.00 0.00 94 1015.6
20200128115838 18 119 0.0 0.0 0.00 0.00 0.00 94 1015.6
20200128115335 18 244 0.0 0.0 0.00 0.00 0.00 94 1015.6
20200128114837 18 249 0.0 0.0 0.00 0.00 0.00 94 1015.2
20200128114335 18 24 0.0 0.0 0.00 0.00 0.00 95 1015.6
20200128113840 18 81 0.0 0.0 0.00 0.00 0.00 94 1015.6
20200128113335 18 30 2.0 0.0 0.00 0.00 0.00 94 1015.6
20200128112839 18 237 2.0 0.0 0.00 0.00 0.00 95 1015.2
20200128112336 18 94 0.0 0.0 0.00 0.00 0.00 94 1015.6
20200128111843 18 321 0.0 0.0 0.00 0.00 0.00 95 1015.2
20200128111337 18 221 0.0 0.0 0.00 0.00 0.00 94 1015.6
20200128110839 18 33 0.0 0.0 0.00 0.00 0.00 94 1015.6
20200128110335 18 160 0.0 0.0 0.00 0.00 0.00 94 1015.6
20200128105835 18 228 0.0 0.0 0.00 0.00 0.00 95 1015.2
20200128105339 18 83 0.0 0.0 0.00 0.00 0.00 94 1015.2
20200128104842 18 263 1.0 0.0 0.00 0.00 0.00 94 1015.2
20200128104340 18 186 0.0 0.0 0.00 0.00 0.00 95 1015.2
20200128103841 18 242 0.0 0.0 0.00 0.00 0.00 95 1015.2
20200128103336 18 108 1.0 0.0 0.00 0.00 0.00 94 1015.2
20200128102839 18 215 0.0 0.0 0.00 0.00 0.00 95 1015.2
20200128102335 18 180 0.0 0.0 0.00 0.00 0.00 94 1015.2
20200128101841 18 222 0.0 0.0 0.00 0.00 0.00 94 1015.2
20200128101336 18 51 0.0 0.0 0.00 0.00 0.00 94 1015.2
20200128100840 18 81 0.0 0.0 0.00 0.00 0.00 94 1015.2
20200128100340 18 236 0.0 0.0 0.00 0.00 0.00 94 1015.2
20200128095834 18 305 0.0 0.0 0.00 0.00 0.00 94 1015.2
20200128095342 18 261 1.0 0.0 0.00 0.00 0.00 94 1015.2
20200128094902 18 33 0.0 0.0 0.00 0.00 0.00 94 1015.2
20200128094342 18 219 0.0 0.0 0.00 0.00 0.00 94 1015.2
20200128093838 18 83 0.0 0.0 0.00 0.00 0.00 94 1015.2
20200128093337 18 161 0.0 0.0 0.00 0.00 0.00 94 1015.6
20200128092840 18 61 2.0 0.0 0.00 0.00 0.00 94 1015.2
20200128092339 18 61 0.0 0.0 0.00 0.00 0.00 94 1015.2
20200128091839 18 201 0.0 0.0 0.00 0.00 0.00 94 1015.6
20200128091336 18 283 2.0 0.0 0.00 0.00 0.00 94 1015.6
20200128090840 18 39 0.0 0.0 0.00 0.00 0.00 94 1015.2
20200128090340 18 2 1.0 0.0 0.00 0.00 0.00 94 1015.2
20200128085840 19 231 3.0 0.0 0.00 0.00 0.00 94 1015.2
20200128085337 19 168 0.0 0.0 0.00 0.00 0.00 94 1015.2
20200128084843 19 131 2.0 0.0 0.00 0.00 0.00 94 1015.2
20200128084335 19 210 1.0 0.0 0.00 0.00 0.00 94 1015.2
20200128083841 19 224 1.0 0.0 0.00 0.00 0.00 94 1015.6
20200128083338 19 192 0.0 0.0 0.00 0.00 0.00 94 1015.2
20200128082839 19 49 0.0 0.0 0.00 0.00 0.00 94 1015.2
20200128082334 19 125 0.0 0.0 0.00 0.00 0.00 94 1015.2
20200128081835 19 56 0.0 0.0 0.00 0.00 0.00 94 1015.2
20200128081336 19 73 0.0 0.0 0.00 0.00 0.00 94 1015.2
20200128080840 19 182 0.0 0.0 0.00 0.00 0.00 94 1015.2
20200128080338 19 75 0.0 0.0 0.00 0.00 0.00 94 1015.2
20200128075840 19 212 1.0 0.0 0.00 0.00 0.00 94 1015.2
20200128075340 19 221 0.0 0.0 0.00 0.00 0.00 94 1014.9
20200128074837 19 252 0.0 0.0 0.00 0.00 0.00 94 1014.9
20200128074339 19 196 0.0 0.0 0.00 0.00 0.00 94 1014.9
20200128073839 19 178 0.0 0.0 0.00 0.00 0.00 94 1014.9
20200128073334 19 102 0.0 0.0 0.00 0.00 0.00 94 1014.9
20200128072838 19 120 0.0 0.0 0.00 0.00 0.00 94 1014.9
20200128072333 19 187 0.0 0.0 0.00 0.00 0.00 94 1014.9
20200128071839 19 58 0.0 0.0 0.00 0.00 0.00 94 1014.9
20200128071340 19 30 0.0 0.0 0.00 0.00 0.00 94 1014.9
20200128070833 19 240 0.0 0.0 0.00 0.00 0.00 94 1014.9
20200128070337 19 316 1.0 0.0 0.00 0.00 0.00 94 1014.9
20200128065838 19 247 2.0 0.0 0.00 0.00 0.00 94 1014.9
20200128065339 19 244 4.0 0.0 0.00 0.00 0.00 94 1014.9
20200128064837 19 206 0.0 0.0 0.00 0.00 0.00 94 1015.2
20200128064337 19 248 2.0 0.0 0.00 0.00 0.00 94 1015.2
20200128063837 19 239 1.0 0.0 0.00 0.00 0.00 94 1014.9
20200128063335 19 288 1.0 0.0 0.00 0.00 0.00 94 1014.9
20200128062840 19 193 0.0 0.0 0.00 0.00 0.00 94 1015.2
20200128062342 19 252 0.0 0.0 0.00 0.00 0.00 94 1014.9
20200128061840 20 224 2.0 0.0 0.00 0.00 0.00 94 1014.9
20200128061339 19 34 0.0 0.0 0.00 0.00 0.00 94 1014.9
20200128060836 20 191 0.0 0.0 0.00 0.00 0.00 94 1014.9
20200128060341 20 272 0.0 0.0 0.00 0.00 0.00 94 1014.9
20200128055838 19 274 0.0 0.0 0.00 0.00 0.00 94 1015.2
20200128055338 20 236 0.0 0.0 0.00 0.00 0.00 94 1014.9
20200128054838 20 176 0.0 0.0 0.00 0.00 0.00 94 1014.9
20200128054340 20 222 0.0 0.0 0.00 0.00 0.00 94 1014.9
20200128053834 20 219 0.0 0.0 0.00 0.00 0.00 94 1014.9
20200128053337 20 173 0.0 0.0 0.00 0.00 0.00 94 1014.9
20200128052840 20 215 0.0 0.0 0.00 0.00 0.00 94 1015.2
20200128052336 20 219 2.0 0.0 0.00 0.00 0.00 94 1015.2
20200128051838 20 243 1.0 0.0 0.00 0.00 0.00 94 1015.2
20200128051349 20 118 1.0 0.0 0.00 0.00 0.00 94 1014.9
20200128050836 20 159 0.0 0.0 0.00 0.00 0.00 94 1014.9
20200128050337 20 298 2.0 0.0 0.00 0.00 0.00 94 1014.9
20200128045840 20 210 0.0 0.0 0.00 0.00 0.00 94 1014.9
20200128045336 20 211 0.0 0.0 0.00 0.00 0.00 94 1014.9
20200128044837 20 149 0.0 0.0 0.00 0.00 0.00 94 1014.9
20200128044338 20 52 0.0 0.0 0.00 0.00 0.00 94 1014.9
20200128043833 20 72 0.0 0.0 0.00 0.00 0.00 94 1014.9
20200128043340 20 228 0.0 0.0 0.00 0.00 0.00 94 1014.9
20200128042840 20 254 1.0 0.0 0.00 0.00 0.00 94 1014.9
20200128042341 20 275 0.0 0.0 0.00 0.00 0.00 94 1014.6
20200128041839 20 208 1.0 0.0 0.00 0.00 0.00 94 1014.9
20200128041340 20 62 0.0 0.0 0.00 0.00 0.00 94 1014.6
20200128040839 20 164 0.0 0.0 0.00 0.00 0.00 94 1014.9
20200128040334 20 95 0.0 0.0 0.00 0.00 0.00 94 1014.9
20200128035839 20 204 0.0 0.0 0.00 0.00 0.00 94 1014.9
20200128035338 20 263 1.0 0.0 0.00 0.00 0.00 94 1014.9
20200128034836 20 302 0.0 0.0 0.00 0.00 0.00 94 1014.9
20200128034340 20 277 1.0 0.0 0.00 0.00 0.00 94 1014.6
20200128033835 20 255 3.0 0.0 0.00 0.00 0.00 94 1014.6
20200128033341 20 79 0.0 0.0 0.00 0.00 0.00 94 1014.9
20200128032839 20 192 0.0 0.0 0.00 0.00 0.00 94 1014.6
20200128032336 20 234 2.0 0.0 0.00 0.00 0.00 94 1014.9
20200128031839 20 171 0.0 0.0 0.00 0.00 0.00 94 1014.9
20200128031334 20 359 0.0 0.0 0.00 0.00 0.00 94 1014.6
20200128030837 20 71 0.0 0.0 0.00 0.00 0.00 94 1014.6
20200128030340 20 258 0.0 0.0 0.00 0.00 0.00 94 1014.6
20200128025836 20 243 3.0 0.0 0.00 0.00 0.00 94 1014.6
20200128025341 20 254 0.0 0.0 0.00 0.00 0.00 94 1014.6
20200128024839 20 168 0.0 0.0 0.00 0.00 0.00 94 1014.6
20200128024340 20 182 1.0 0.0 0.00 0.00 0.00 94 1014.6
20200128023836 20 177 0.0 0.0 0.00 0.00 0.00 94 1014.6
20200128023339 20 244 1.0 0.0 0.00 0.00 0.00 94 1014.6
20200128022837 21 173 0.0 0.0 0.00 0.00 0.00 94 1014.6
20200128022339 21 252 0.0 0.0 0.00 0.00 0.00 94 1014.6
20200128021835 21 240 0.0 0.0 0.00 0.00 0.00 94 1014.6
20200128021338 21 269 0.0 0.0 0.00 0.00 0.00 94 1014.6
20200128020838 21 73 2.0 0.0 0.00 0.00 0.00 93 1014.6
20200128020335 21 61 0.0 0.0 0.00 0.00 0.00 93 1014.6
20200128015842 21 173 1.0 0.0 0.00 0.00 0.00 93 1014.6
20200128015341 21 101 3.0 0.0 0.00 0.00 0.00 93 1014.6
20200128014838 21 193 0.0 0.0 0.00 0.00 0.00 93 1014.6
20200128014340 21 208 0.0 0.0 0.00 0.00 0.00 93 1014.6
20200128013840 21 327 0.0 0.0 0.00 0.00 0.00 93 1014.6
20200128013340 21 184 0.0 0.0 0.00 0.00 0.00 93 1014.6
20200128012835 21 192 0.0 0.0 0.00 0.00 0.00 93 1014.6
20200128012340 21 66 0.0 0.0 0.00 0.00 0.00 93 1014.6
20200128011835 21 44 0.0 0.0 0.00 0.00 0.00 93 1014.6
20200128011339 21 330 0.0 0.0 0.00 0.00 0.00 92 1014.6
20200128010837 21 104 0.0 0.0 0.00 0.00 0.00 92 1014.6
20200128010337 21 169 0.0 0.0 0.00 0.00 0.00 92 1014.6
20200128005842 21 201 0.0 0.0 0.00 0.00 0.00 92 1014.2
20200128005340 21 220 0.0 0.0 0.00 0.00 0.00 92 1014.2
20200128004835 21 235 2.0 0.0 0.00 0.00 0.00 92 1014.6
20200128004336 21 209 1.0 0.0 0.00 0.00 0.00 92 1014.6
20200128003839 21 150 0.0 0.0 0.00 0.00 0.00 92 1014.6
20200128003338 21 252 0.0 0.0 0.00 0.00 0.00 92 1014.6
20200128002835 21 191 0.0 0.0 0.00 0.00 0.00 92 1014.6
20200128002339 21 231 2.0 0.0 0.00 0.00 0.00 92 1014.6
20200128001842 22 232 1.0 0.0 0.00 0.00 0.00 92 1014.6